Tracking 35334 objects as of 13-Sep-2026
HD Live streaming from Space Station
objects crossing your sky now

SL-12 DEB


SL-12 DEB is no longer on orbit


NORAD ID: 28752
Int'l Code: 2002-037AX
Launch date: July 25, 2002
Source: Commonwealth of Independent States (former USSR) (CIS)
Launch site: TYURATAM MISSILE AND SPACE COMPLEX (TTMTR)
Decay date: 2008-12-21

Note: This is SATELLITE DEBRIS
Your satellite tracking list
Your tracking list is empty




NASA's NSSDC Master Catalog

Two Line Element Set (TLE):
1 28752U 02037AX  08355.63876037  .05268307  85258-5  13136-2 0  9997
2 28752 063.0561 177.9908 0009906 316.2062 044.2116 16.28500082195872
Source of the keplerian elements: AFSPC